TimeCDT,TemperatureF,Dew PointF,Humidity,Sea Level PressureIn,VisibilityMPH,Wind Direction,Wind SpeedMPH,Gust SpeedMPH,PrecipitationIn,Events,Conditions,WindDirDegrees,DateUTC
12:15 AM,62.8,57.6,83,29.87,10.0,Calm,Calm,-,N/A,,Clear,0,2012-10-01 05:15:00
12:35 AM,61.7,59.2,91,29.86,10.0,Calm,Calm,-,N/A,,Clear,0,2012-10-01 05:35:00
12:55 AM,61.3,60.8,98,29.85,10.0,Calm,Calm,-,N/A,,Clear,0,2012-10-01 05:55:00
1:15 AM,61.3,61.0,99,29.85,10.0,Calm,Calm,-,N/A,,Clear,0,2012-10-01 06:15:00
1:35 AM,61.3,60.3,96,29.85,10.0,Calm,Calm,-,N/A,,Clear,0,2012-10-01 06:35:00
1:55 AM,61.5,58.5,90,29.85,10.0,North,4.6,-,N/A,,Clear,360,2012-10-01 06:55:00
2:15 AM,62.4,56.5,81,29.84,10.0,North,3.5,-,N/A,,Clear,10,2012-10-01 07:15:00
2:35 AM,62.8,55.9,78,29.84,10.0,Calm,Calm,-,N/A,,Clear,0,2012-10-01 07:35:00
2:55 AM,61.9,57.9,87,29.84,10.0,Calm,Calm,-,N/A,,Clear,0,2012-10-01 07:55:00
3:15 AM,61.3,61.5,100,29.83,10.0,Calm,Calm,-,N/A,,Clear,0,2012-10-01 08:15:00
3:35 AM,61.3,61.3,100,29.83,10.0,Calm,Calm,-,N/A,,Clear,0,2012-10-01 08:35:00
3:55 AM,61.3,61.0,99,29.82,10.0,Calm,Calm,-,N/A,,Clear,0,2012-10-01 08:55:00
4:15 AM,61.0,60.8,99,29.82,10.0,Calm,Calm,-,N/A,,Clear,0,2012-10-01 09:15:00
4:35 AM,60.6,58.8,94,29.82,10.0,Calm,Calm,-,N/A,,Clear,0,2012-10-01 09:35:00
4:55 AM,61.3,56.8,85,29.82,10.0,Calm,Calm,-,N/A,,Clear,0,2012-10-01 09:55:00
5:15 AM,61.3,55.9,82,29.82,10.0,North,3.5,-,N/A,,Clear,350,2012-10-01 10:15:00
5:35 AM,61.3,55.8,82,29.82,10.0,North,3.5,-,N/A,,Clear,350,2012-10-01 10:35:00
5:55 AM,61.3,55.6,81,29.82,10.0,North,3.5,-,N/A,,Clear,350,2012-10-01 10:55:00
6:15 AM,61.3,55.4,81,29.82,10.0,North,3.5,-,N/A,,Clear,350,2012-10-01 11:15:00
6:35 AM,61.3,54.1,77,29.83,10.0,Calm,Calm,-,N/A,,Clear,0,2012-10-01 11:35:00
6:55 AM,60.4,55.4,83,29.84,10.0,Calm,Calm,-,N/A,,Clear,0,2012-10-01 11:55:00
7:15 AM,59.0,57.6,95,29.84,10.0,Calm,Calm,-,N/A,,Clear,0,2012-10-01 12:15:00
7:35 AM,59.0,59.0,100,29.84,10.0,Calm,Calm,-,N/A,,Clear,0,2012-10-01 12:35:00
7:55 AM,58.8,58.8,100,29.83,10.0,Calm,Calm,-,N/A,,Clear,0,2012-10-01 12:55:00
8:15 AM,59.0,59.0,100,29.83,10.0,NNW,3.5,-,N/A,,Clear,340,2012-10-01 13:15:00
8:35 AM,60.4,58.1,92,29.83,10.0,North,3.5,-,N/A,,Clear,10,2012-10-01 13:35:00
8:55 AM,61.3,55.4,81,29.83,10.0,North,4.6,-,N/A,,Clear,10,2012-10-01 13:55:00
9:15 AM,61.3,53.8,76,29.83,10.0,North,3.5,-,N/A,,Clear,350,2012-10-01 14:15:00
9:35 AM,62.1,53.6,74,29.84,10.0,North,5.8,-,N/A,,Clear,10,2012-10-01 14:35:00
9:55 AM,62.8,53.6,72,29.84,10.0,North,4.6,-,N/A,,Clear,10,2012-10-01 14:55:00
10:15 AM,62.8,53.1,71,29.84,10.0,Calm,Calm,-,N/A,,Clear,0,2012-10-01 15:15:00
10:35 AM,63.5,53.6,70,29.84,10.0,Calm,Calm,-,N/A,,Clear,0,2012-10-01 15:35:00
10:55 AM,67.3,55.6,66,29.84,10.0,North,6.9,-,N/A,,Clear,360,2012-10-01 15:55:00
11:15 AM,71.1,57.2,61,29.84,10.0,North,5.8,-,N/A,,Clear,360,2012-10-01 16:15:00
11:35 AM,72.1,56.1,57,29.84,10.0,North,6.9,16.1,N/A,,Clear,10,2012-10-01 16:35:00
11:55 AM,71.8,55.2,56,29.84,10.0,North,6.9,-,N/A,,Clear,350,2012-10-01 16:55:00
12:15 PM,71.6,55.2,56,29.84,10.0,North,9.2,-,N/A,,Clear,10,2012-10-01 17:15:00
12:35 PM,71.6,55.0,56,29.84,10.0,North,6.9,-,N/A,,Clear,10,2012-10-01 17:35:00
12:55 PM,71.6,53.2,52,29.83,10.0,NNE,10.4,-,N/A,,Clear,20,2012-10-01 17:55:00
1:15 PM,72.9,53.6,51,29.83,10.0,North,6.9,-,N/A,,Clear,360,2012-10-01 18:15:00
1:35 PM,74.3,54.1,49,29.82,10.0,North,6.9,-,N/A,,Clear,360,2012-10-01 18:35:00
1:55 PM,76.1,54.3,47,29.81,10.0,North,10.4,-,N/A,,Clear,360,2012-10-01 18:55:00
2:15 PM,76.6,53.1,44,29.80,10.0,NNE,12.7,18.4,N/A,,Clear,30,2012-10-01 19:15:00
2:35 PM,76.6,52.0,42,29.80,10.0,NE,8.1,18.4,N/A,,Clear,40,2012-10-01 19:35:00
2:55 PM,76.6,51.8,42,29.79,10.0,NE,6.9,-,N/A,,Clear,40,2012-10-01 19:55:00
3:15 PM,76.6,52.7,43,29.79,10.0,NE,8.1,-,N/A,,Clear,40,2012-10-01 20:15:00
3:35 PM,76.6,53.1,44,29.79,10.0,North,8.1,-,N/A,,Clear,360,2012-10-01 20:35:00
4:15 PM,76.6,54.9,47,29.79,10.0,NE,8.1,-,N/A,,Clear,50,2012-10-01 21:15:00
4:35 PM,76.6,55.2,47,29.80,10.0,NE,8.1,-,N/A,,Clear,40,2012-10-01 21:35:00
4:55 PM,76.3,55.2,48,29.80,10.0,NNE,4.6,-,N/A,,Clear,20,2012-10-01 21:55:00
5:15 PM,74.5,54.0,49,29.80,10.0,North,5.8,-,N/A,,Clear,10,2012-10-01 22:15:00
5:35 PM,73.8,51.4,45,29.80,10.0,North,3.5,-,N/A,,Clear,350,2012-10-01 22:35:00
5:55 PM,72.0,52.9,51,29.81,10.0,North,3.5,-,N/A,,Clear,350,2012-10-01 22:55:00
6:15 PM,71.6,54.3,54,29.81,10.0,North,4.6,-,N/A,,Clear,350,2012-10-01 23:15:00
6:35 PM,71.6,55.9,58,29.81,10.0,North,3.5,-,N/A,,Clear,350,2012-10-01 23:35:00
6:55 PM,71.6,57.0,60,29.82,10.0,North,3.5,-,N/A,,Clear,10,2012-10-01 23:55:00
7:15 PM,71.1,57.4,62,29.82,10.0,Calm,Calm,-,N/A,,Clear,0,2012-10-02 00:15:00
7:35 PM,68.7,57.2,67,29.82,10.0,NE,3.5,-,N/A,,Clear,40,2012-10-02 00:35:00
7:55 PM,67.8,56.5,67,29.82,10.0,NNE,4.6,-,N/A,,Clear,20,2012-10-02 00:55:00
8:15 PM,69.1,53.2,57,29.83,10.0,Calm,Calm,-,N/A,,Clear,0,2012-10-02 01:15:00
8:35 PM,68.0,52.5,58,29.84,10.0,NNW,3.5,-,N/A,,Clear,340,2012-10-02 01:35:00
8:55 PM,65.7,53.1,64,29.84,10.0,Calm,Calm,-,N/A,,Clear,0,2012-10-02 01:55:00
9:15 PM,63.0,54.0,72,29.85,10.0,Calm,Calm,-,N/A,,Clear,0,2012-10-02 02:15:00
9:35 PM,61.3,55.0,80,29.85,10.0,NW,3.5,-,N/A,,Clear,320,2012-10-02 02:35:00
9:55 PM,61.7,54.7,78,29.86,10.0,North,3.5,-,N/A,,Clear,350,2012-10-02 02:55:00
10:15 PM,62.8,53.2,71,29.86,10.0,NNW,5.8,-,N/A,,Scattered Clouds,330,2012-10-02 03:15:00
10:35 PM,62.6,53.4,72,29.87,10.0,NNW,3.5,-,N/A,,Scattered Clouds,340,2012-10-02 03:35:00
10:55 PM,62.4,53.2,72,29.87,10.0,NNW,4.6,-,N/A,,Clear,340,2012-10-02 03:55:00
11:15 PM,61.7,54.0,76,29.87,10.0,North,3.5,-,N/A,,Clear,350,2012-10-02 04:15:00
11:35 PM,61.3,54.5,78,29.87,10.0,North,4.6,-,N/A,,Clear,350,2012-10-02 04:35:00
11:55 PM,61.3,54.9,79,29.87,10.0,North,5.8,-,N/A,,Clear,350,2012-10-02 04:55:00